Meteo orario 1-e Tukatovo

Oggi, 6 Marzo, Sabato

Tempo Temperatura Precipitazioni Vento Pressione Umidità
00:00 -7°C° 0 mm 2 m/s 730 mm Hg 95%
01:00 -8°C° 0 mm 1 m/s 730 mm Hg 96%
02:00 -9°C° 0 mm 1 m/s 731 mm Hg 96%
03:00 -10°C° 0 mm 0 m/s 731 mm Hg 97%
04:00 -11°C° 0 mm 0 m/s 731 mm Hg 97%
05:00 -11°C° 0 mm 0 m/s 731 mm Hg 97%
06:00 -12°C° 0 mm 0 m/s 732 mm Hg 97%
07:00 -12°C° 0 mm 0 m/s 732 mm Hg 97%
08:00 -10°C° 0 mm 1 m/s 732 mm Hg 93%
09:00 -9°C° 0 mm 1 m/s 733 mm Hg 90%
10:00 -7°C° 0 mm 1 m/s 733 mm Hg 86%
11:00 -6°C° 0 mm 1 m/s 733 mm Hg 84%
12:00 -7°C° 0 mm 2 m/s 733 mm Hg 81%
13:00 -6°C° 0 mm 2 m/s 733 mm Hg 78%
14:00 -6°C° 0 mm 2 m/s 733 mm Hg 80%
15:00 -6°C° 0 mm 2 m/s 733 mm Hg 83%
16:00 -6°C° 0 mm 2 m/s 733 mm Hg 85%
17:00 -7°C° 0 mm 1 m/s 733 mm Hg 87%
18:00 -9°C° 0 mm 1 m/s 733 mm Hg 88%
19:00 -10°C° 0 mm 1 m/s 732 mm Hg 90%
20:00 -10°C° 0 mm 0 m/s 732 mm Hg 89%
21:00 -10°C° 0 mm 0 m/s 732 mm Hg 88%
22:00 -10°C° 0 mm 0 m/s 732 mm Hg 87%
23:00 -9°C° 0 mm 0 m/s 732 mm Hg 87%

Domani, 7 Marzo, Domenica

Tempo Temperatura Precipitazioni Vento Pressione Umidità
00:00 -9°C° 0 mm 0 m/s 731 mm Hg 87%
01:00 -9°C° 0 mm 0 m/s 730 mm Hg 87%
02:00 -9°C° 0.1 mm 1 m/s 730 mm Hg 90%
03:00 -9°C° 0.1 mm 1 m/s 730 mm Hg 93%
04:00 -9°C° 0.1 mm 1 m/s 729 mm Hg 96%
05:00 -10°C° 0.4 mm 2 m/s 729 mm Hg 95%
06:00 -9°C° 0.4 mm 2 m/s 728 mm Hg 95%
07:00 -10°C° 0.4 mm 3 m/s 728 mm Hg 95%
08:00 -10°C° 0.3 mm 3 m/s 728 mm Hg 94%
09:00 -10°C° 0.3 mm 4 m/s 727 mm Hg 93%
10:00 -11°C° 0.3 mm 5 m/s 727 mm Hg 93%
11:00 -11°C° 0.4 mm 5 m/s 727 mm Hg 93%
12:00 -11°C° 0.4 mm 5 m/s 727 mm Hg 92%
13:00 -11°C° 0.4 mm 5 m/s 727 mm Hg 92%
14:00 -11°C° 0.2 mm 6 m/s 727 mm Hg 89%
15:00 -11°C° 0.2 mm 6 m/s 728 mm Hg 86%
16:00 -12°C° 0.2 mm 6 m/s 728 mm Hg 83%
17:00 -14°C° 0 mm 5 m/s 729 mm Hg 86%
18:00 -16°C° 0 mm 4 m/s 729 mm Hg 89%
19:00 -17°C° 0 mm 3 m/s 730 mm Hg 92%
20:00 -18°C° 0 mm 2 m/s 730 mm Hg 93%
21:00 -17°C° 0 mm 1 m/s 731 mm Hg 95%
22:00 -18°C° 0 mm 1 m/s 731 mm Hg 96%
23:00 -18°C° 0 mm 1 m/s 731 mm Hg 96%

Dopodomani, 8 Marzo, Lunedi

Tempo Temperatura Precipitazioni Vento Pressione Umidità
00:00 -20°C° 0 mm 2 m/s 731 mm Hg 97%
01:00 -20°C° 0 mm 2 m/s 731 mm Hg 97%
02:00 -19°C° 0 mm 2 m/s 731 mm Hg 97%
03:00 -19°C° 0 mm 3 m/s 731 mm Hg 96%
04:00 -19°C° 0 mm 3 m/s 731 mm Hg 96%
05:00 -19°C° 0 mm 4 m/s 731 mm Hg 96%
06:00 -18°C° 0 mm 4 m/s 731 mm Hg 95%
07:00 -19°C° 0 mm 5 m/s 730 mm Hg 95%
08:00 -17°C° 0.3 mm 6 m/s 730 mm Hg 94%
09:00 -17°C° 0.3 mm 7 m/s 730 mm Hg 94%
10:00 -15°C° 0.3 mm 8 m/s 729 mm Hg 93%
11:00 -14°C° 0.6 mm 9 m/s 729 mm Hg 93%
12:00 -11°C° 0.6 mm 9 m/s 729 mm Hg 93%
13:00 -10°C° 0.6 mm 9 m/s 729 mm Hg 93%
14:00 -10°C° 0.5 mm 9 m/s 729 mm Hg 93%
15:00 -9°C° 0.5 mm 9 m/s 729 mm Hg 93%
16:00 -9°C° 0.5 mm 9 m/s 729 mm Hg 93%
17:00 -8°C° 0.4 mm 8 m/s 729 mm Hg 94%
18:00 -8°C° 0.4 mm 8 m/s 729 mm Hg 94%
19:00 -8°C° 0.4 mm 8 m/s 729 mm Hg 94%
20:00 -8°C° 0.2 mm 8 m/s 729 mm Hg 94%
21:00 -8°C° 0.2 mm 7 m/s 729 mm Hg 94%
22:00 -8°C° 0.2 mm 7 m/s 729 mm Hg 94%
23:00 -8°C° 0.4 mm 7 m/s 729 mm Hg 94%

9 Marzo, Martedi

Tempo Temperatura Precipitazioni Vento Pressione Umidità
00:00 -8°C° 0.4 mm 7 m/s 728 mm Hg 94%
01:00 -8°C° 0.4 mm 8 m/s 728 mm Hg 94%
02:00 -8°C° 0.4 mm 8 m/s 728 mm Hg 94%
03:00 -8°C° 0.4 mm 8 m/s 728 mm Hg 94%
04:00 -8°C° 0.4 mm 8 m/s 727 mm Hg 94%
05:00 -8°C° 0.4 mm 8 m/s 727 mm Hg 94%
06:00 -8°C° 0.4 mm 8 m/s 727 mm Hg 94%
07:00 -8°C° 0.4 mm 8 m/s 728 mm Hg 94%
08:00 -8°C° 0.6 mm 6 m/s 728 mm Hg 94%
09:00 -7°C° 0.6 mm 5 m/s 728 mm Hg 94%
10:00 -7°C° 0.6 mm 4 m/s 729 mm Hg 94%
11:00 -7°C° 0.1 mm 4 m/s 729 mm Hg 91%
12:00 -7°C° 0.1 mm 4 m/s 729 mm Hg 88%
13:00 -5°C° 0.1 mm 3 m/s 729 mm Hg 85%
14:00 -6°C° 0 mm 3 m/s 729 mm Hg 84%
15:00 -6°C° 0 mm 3 m/s 729 mm Hg 84%
16:00 -7°C° 0 mm 3 m/s 729 mm Hg 84%
17:00 -8°C° 0 mm 2 m/s 729 mm Hg 87%
18:00 -12°C° 0 mm 2 m/s 730 mm Hg 90%
19:00 -13°C° 0 mm 1 m/s 730 mm Hg 93%
20:00 -14°C° 0 mm 1 m/s 730 mm Hg 95%
21:00 -15°C° 0 mm 0 m/s 730 mm Hg 97%
22:00 -16°C° 0 mm 0 m/s 730 mm Hg 98%
23:00 -16°C° 0 mm 0 m/s 730 mm Hg 99%

10 Marzo, Mercoledi

Tempo Temperatura Precipitazioni Vento Pressione Umidità
00:00 -16°C° 0 mm 0 m/s 730 mm Hg 99%
01:00 -17°C° 0 mm 0 m/s 730 mm Hg 99%
02:00 -17°C° 0 mm 0 m/s 730 mm Hg 99%
03:00 -17°C° 0 mm 0 m/s 730 mm Hg 99%
04:00 -17°C° 0 mm 0 m/s 730 mm Hg 99%
05:00 -17°C° 0 mm 0 m/s 730 mm Hg 99%
06:00 -17°C° 0 mm 0 m/s 730 mm Hg 99%
07:00 -17°C° 0 mm 0 m/s 730 mm Hg 99%
08:00 -16°C° 0 mm 0 m/s 730 mm Hg 96%
09:00 -14°C° 0 mm 1 m/s 730 mm Hg 94%
10:00 -13°C° 0 mm 1 m/s 730 mm Hg 91%
11:00 -14°C° 0 mm 2 m/s 730 mm Hg 90%
12:00 -13°C° 0 mm 2 m/s 731 mm Hg 90%
13:00 -14°C° 0 mm 3 m/s 731 mm Hg 89%
14:00 -14°C° 0 mm 3 m/s 731 mm Hg 89%
15:00 -15°C° 0 mm 3 m/s 731 mm Hg 90%
16:00 -15°C° 0 mm 3 m/s 730 mm Hg 91%
17:00 -16°C° 0 mm 3 m/s 731 mm Hg 93%
18:00 -17°C° 0 mm 2 m/s 731 mm Hg 95%
19:00 -18°C° 0 mm 2 m/s 731 mm Hg 97%
20:00 -19°C° 0 mm 2 m/s 732 mm Hg 98%
21:00 -19°C° 0 mm 2 m/s 732 mm Hg 98%
22:00 -18°C° 0 mm 1 m/s 732 mm Hg 98%
23:00 -19°C° 0 mm 1 m/s 732 mm Hg 98%

11 Marzo, Giovedi

Tempo Temperatura Precipitazioni Vento Pressione Umidità
00:00 -20°C° 0 mm 1 m/s 733 mm Hg 99%
01:00 -21°C° 0 mm 1 m/s 733 mm Hg 99%
02:00 -21°C° 0 mm 1 m/s 733 mm Hg 99%
03:00 -22°C° 0 mm 1 m/s 733 mm Hg 99%
04:00 -22°C° 0 mm 1 m/s 734 mm Hg 99%
05:00 -22°C° 0 mm 1 m/s 734 mm Hg 99%
06:00 -23°C° 0 mm 1 m/s 735 mm Hg 99%
07:00 -23°C° 0 mm 1 m/s 735 mm Hg 99%
08:00 -22°C° 0 mm 1 m/s 736 mm Hg 97%
09:00 -23°C° 0 mm 2 m/s 736 mm Hg 95%
10:00 -21°C° 0 mm 2 m/s 737 mm Hg 93%
11:00 -22°C° 0 mm 3 m/s 737 mm Hg 91%
12:00 -21°C° 0 mm 3 m/s 738 mm Hg 90%
13:00 -20°C° 0 mm 4 m/s 738 mm Hg 88%
14:00 -20°C° 0 mm 4 m/s 738 mm Hg 88%
15:00 -20°C° 0 mm 4 m/s 739 mm Hg 89%
16:00 -20°C° 0 mm 4 m/s 739 mm Hg 89%
17:00 -22°C° 0 mm 3 m/s 739 mm Hg 93%
18:00 -23°C° 0 mm 2 m/s 740 mm Hg 96%
19:00 -25°C° 0 mm 2 m/s 740 mm Hg 99%
20:00 -23°C° 0 mm 1 m/s 741 mm Hg 99%
21:00 -24°C° 0 mm 1 m/s 741 mm Hg 99%
22:00 -25°C° 0 mm 1 m/s 742 mm Hg 99%
23:00 -27°C° 0 mm 1 m/s 742 mm Hg 99%
Mostrare altro

Abbiamo bisogno del tuo consenso

Meteoprog e i nostri fornitori di servizi possono memorizzare e accedere a dati personali come cookie, identificatori di dispositivi o altre tecnologie simili sul tuo dispositivo e possono elaborare tali dati per personalizzare i contenuti e gli annunci, nonché fornire funzionalità dei social media e analizzarne il traffico.

  • Archiviare e/o accedere alle informazioni sul tuo dispositivo

    Cookie, identificatori di dispositivi o altre informazioni possono essere memorizzati o resi accessibili sul tuo dispositivo per le finalità sopra indicate.

  • Annunci e contenuti personalizzati, misurazione di annunci e contenuti, approfondimenti sul pubblico e sviluppo di prodotti

    Gli annunci e i contenuti possono essere personalizzati in base a un profilo. È possibile aggiungere più dati per personalizzare meglio annunci e contenuti. È possibile misurare il rendimento degli annunci e dei contenuti. È possibile ricavare informazioni sul pubblico che ha visto gli annunci e i contenuti. Tali dati possono essere utilizzati per sviluppare o migliorare l'esperienza, i sistemi e il software dell'utente.

Cliccando su “Accetto”, acconsenti all'uso di cookie, identificatori di dispositivo, web beacon o altre tecnologie simili. Puoi modificare le impostazioni nel browser del tuo dispositivo.

Per determinati scopi, è possibile fare affidamento su interessi legali, piuttosto che sul consenso. Puoi approfondire questo argomento consultando la nostra Informativa sulla privacy e sui cookie.